Hourly Data Report for October 08, 2013

All times are specified in Local Standard Time (LST). Add 1 hour to adjust for Daylight Saving Time where and when it is observed.

ARVIAT A
NUNAVUT

61°05'38.000" N
94°04'18.000" W
10.40 m
2300427
71174
YEK

Download Data

Hourly Data (October 2013)
Hourly Data Report for October 8, 2013
Temp Definition
°C
Dew Point Temp Definition
°C
Rel Hum Definition
%
Wind Dir Definition
10's deg

Wind Spd Definition
km/h
Visibility Definition
km
Stn Press Definition
kPa
Hmdx Definition


Wind Chill Definition


Weather Definition


TIME
00:00 Legend Double Dagger -0.6 -1.3 95 36 17 4.0 100.86   -6 LegendNANA
01:00 Legend Double Dagger -1.4 -1.5 99 35 18 16.1 100.87   -7 LegendNANA
02:00 Legend Double Dagger -1.1 -1.2 99 35 18 16.1 100.89   -6 LegendNANA
03:00 Legend Double Dagger -0.6 -1.0 97 1 17 4.0 100.93   -6 LegendNANA
04:00 Legend Double Dagger -1.0 -2.9 87 2 28 16.1 100.98   -8 LegendNANA
05:00 Legend Double Dagger -1.9 -4.1 85 1 24 16.1 101.05   -8 LegendNANA
06:00 Legend Double Dagger -2.5 -3.8 91 35 22 16.1 101.09   -9 LegendNANA
07:00 Legend Double Dagger -1.2 -3.4 85 3 22 16.1 101.12   -7 LegendNANA
08:00 Legend Double Dagger -1.8 -2.6 94 35 26 14.5 101.18   -8 LegendNANA
09:00 Legend Double Dagger -1.6 -2.9 91 36 26 16.1 101.23   -8 LegendNANA
10:00 Legend Double Dagger -1.7 -2.9 92 35 30 16.1 101.27   -9 LegendNANA
11:00 Legend Double Dagger -1.4 -3.5 86 35 24 16.1 101.33   -8 LegendNANA
12:00 Legend Double Dagger -1.2 -3.3 86 36 24 6.4 101.37   -7 LegendNANA
13:00 Legend Double Dagger -1.1 -2.7 89 1 30 16.1 101.38   -8 LegendNANA
14:00 Legend Double Dagger -0.8 -1.9 92 36 24 16.1 101.44   -7 LegendNANA
15:00 Legend Double Dagger -0.5 -2.4 87 1 24 16.1 101.46   -6 LegendNANA
16:00 Legend Double Dagger -0.8 -3.0 85 1 26 16.1 101.50   -7 LegendNANA
17:00 Legend Double Dagger -0.8 -3.2 84 1 18 16.1 101.54   -6 LegendNANA
18:00 Legend Double Dagger -1.2 -3.9 82 36 26 16.1 101.58   -8 LegendNANA
19:00 Legend Double Dagger -1.4 -4.2 81 36 24 16.1 101.65   -8 LegendNANA
20:00 Legend Double Dagger -1.6 -4.3 82 35 24 16.1 101.72   -8 LegendNANA
21:00 Legend Double Dagger -1.7 -4.5 81 35 22 16.1 101.74   -8 LegendNANA
22:00 Legend Double Dagger -1.7 -4.8 80 36 15 16.1 101.77   -7 LegendNANA
23:00 Legend Double Dagger -1.7 -4.6 81 36 17 16.1 101.80   -7 LegendNANA

Notes on Data Quality.

Legend

  • E = Estimated
  • M = Missing
  • NA = Not Available
  • ‡ = Partner data that is not subject to review by the National Climate Archives
Date modified: